Location: Recife
(8.0585°S, 34.8848°W)
Time: 05:28:10
(UTC-03:00)

Courier 1B - Pass Details

Date: 22 April 2026
Orbit: 962 x 1209 km, 28.3° (Epoch: 14 May)

Event Time Altitude Azimuth Distance (km) Brightness Sun altitude
Rises 14:21:51 0° 266° (W) 4,018 11.4 40.0°
Reaches altitude 10° 14:25:24 10° 279° (W) 3,014 11.2 39.2°
Maximum altitude 14:30:57 23° 328° (NNW) 2,146 10.4 37.9°
Drops below altitude 10° 14:36:17 10° 18° (NNE) 2,865 10.1 36.7°
Sets 14:39:35 0° 33° (NNE) 3,773 10.5 35.9°
